Location: Unspecified
(0.0000°N, 0.0000°E)
Time: 23:02:04
(UTC+00:00)

Hubble Space Telescope - Visible Passes

Search period start: 27 November 2014 00:00
Search period end: 07 December 2014 00:00
Orbit: 546 x 549 km, 28.5° (Epoch: 26 November)

Date Brightness Start Highest point End Pass type
(mag) Time Alt. Az. Time Alt. Az. Time Alt. Az.
29 Nov 3.1 19:19:56 10° S 19:21:51 13° SSE 19:22:07 13° SSE visible
30 Nov 2.7 19:11:28 10° SSW 19:14:22 18° SSE 19:15:02 18° SE visible
01 Dec 2.2 19:03:21 10° SSW 19:06:51 26° SSE 19:07:59 23° SE visible
02 Dec 1.7 18:55:26 10° SW 18:59:19 37° SSE 19:00:57 26° ESE visible
03 Dec 1.1 18:47:39 10° SW 18:51:45 56° SSE 18:53:56 25° E visible
04 Dec 3.2 05:04:42 10° N 05:06:28 12° NNE 05:08:14 10° NE visible
04 Dec 0.7 18:39:59 10° WSW 18:44:10 86° SSE 18:46:56 20° ENE visible
05 Dec 2.9 04:56:07 10° NNW 04:58:57 18° NNE 05:01:46 10° ENE visible
05 Dec 1.1 18:32:27 10° WSW 18:36:34 62° NNW 18:39:56 15° NE visible
06 Dec 2.4 04:48:40 14° NNW 04:51:24 25° NNE 04:54:51 10° E visible
06 Dec 1.7 18:25:03 10° W 18:28:59 40° NNW 18:32:54 10° NE visible
